Location: Albuquerque Trailhead
(34.7934°N, 106.3736°W)
Time: 05:25:40
(UTC+00:00)

Cosmos 2333 Rocket - Pass Details

Date: 20 June 2021
Orbit: 841 x 861 km, 70.8° (Epoch: 29 July)

Event Time Altitude Azimuth Distance (km) Brightness Sun altitude
Exits shadow 04:58:00 - 222° (SW) 2,778 4.7 -24.2°
Reaches altitude 10° 04:58:49 10° 225° (SW) 2,487 4.5 -24.3°
Maximum altitude 05:04:14 43° 296° (WNW) 1,186 3.3 -24.9°
Drops below altitude 10° 05:09:40 10° 7° (N) 2,490 5.3 -25.5°
Sets 05:12:16 0° 15° (NNE) 3,426 6.0 -25.7°
